Meath Environmental Platform

Observations for Trim Patrick St

Time AQI Temp °C Hum % Pres Pa CO μg/m³ H₂S μg/m³ NO μg/m³ NO₂ μg/m³ O₃ μg/m³ SO₂ μg/m³ PM1 μg/m³ PM2.5 μg/m³ PM10 μg/m³
Monday 3 August 2026
21:32 4 18.3 66 38,460 0 15.29 0.89 45.18 36.71 0.15 2 6.12 6.73
21:31 4 18.3 68 38,460 0 16.89 0.86 51.3 62.77 1.84 2.86 6.74 7.42
21:30 4 18.4 71 38,460 0 15.76 0.89 37.71 40.49 1.58 2.86 6.5 7.15
21:29 4 18.4 71 38,460 0 16.42 0.82 49.52 41.4 1.83 2.86 6.55 7.21
21:28 4 18.4 68 38,460 0 15 0.91 50.91 35.13 0.57 2.86 7.46 8.21
21:27 4 18.5 66 38,460 0 14.89 0.93 40.47 28.43 1.06 2.86 7.57 8.33
21:26 4 18.5 70 38,460 0 15.97 0.82 43.74 40.54 1.31 2.86 6.56 7.22
21:25 4 18.5 70 38,460 0 15.05 0.67 39.08 25.74 1.91 2.86 6.61 7.28
21:24 4 18.6 69 38,459 0 16.26 0.74 52.64 56.48 1.31 2.86 7.38 8.12
21:23 4 18.6 71 38,459 0 14.11 0.6 40.11 25.91 1.45 2.86 7.27 7.99
21:22 4 18.6 69 38,459 0 15.63 0.73 46.91 55.43 1.67 3.71 7.37 8.11
21:21 4 18.7 69 38,459 0 14.9 0.67 39.33 26.4 1.86 2 5.2 5.72
21:20 4 18.7 68 38,459 0 15.5 0.81 49.36 47.43 1.5 3.71 7.45 8.2
21:19 4 18.7 69 38,459 0 16.18 0.75 49.38 44.99 1.83 2 5.96 6.56
21:18 4 18.7 70 38,458 0 16.37 0.84 48.32 18.57 1.99 2.86 6.57 7.22
21:17 4 18.8 68 38,458 0 16.55 0.88 65.07 25.52 1.8 2.86 7.42 8.16
21:16 4 18.8 70 38,457 0 15 0.86 56.16 15.19 1.99 2.86 6.58 7.24
21:15 4 18.9 70 38,455 0 13.35 0.98 34.59 32.33 2.11 2.86 5.89 6.47
21:13 4 18.9 69 38,451 0 14.92 0.89 37.46 34.12 1.57 2.86 6.67 7.34
21:12 4 19 66 38,447 0 14.32 0.85 46.35 64.16 1.4 2.86 6.9 7.59